User: anonymous   Login
Location: Big Humbug Creek
(37.8930°N, 120.2199°W)
Time: 21:04:30
(UTC+00:00)
Language:

Cosmos 1417 Rocket - Orbit

View from above orbital plane
View from above orbital plane
View from above satellite
View from above satellite

Ground track
Ground track

The orbit data is extracted from the following two-line orbital elements,

1 13618U 82102B   24284.61614578  .00000275  00000-0  26247-3 0  9998
2 13618  82.9666 320.7814 0031275 208.3210 266.7037 13.76957626108784
Epoch (UTC): 10 October 2024 14:47:14
Eccentricity: 0.0031275
inclination: 82.9666°
perigee height: 952 km
apogee height: 997 km
right ascension of ascending node: 320.7814°
argument of perigee: 208.3210°
revolutions per day: 13.76957626
mean anomaly at epoch: 266.7037°
orbit number at epoch: 10878

The dashed part of the orbit path shows where the satellite is in the earth's shadow,  

DLR